Weather in Giresun

Turkey     40°55′06″N   38°23′41″E
temp.,
°C
wind,
m/s
gust,
m/s
humid.,
%
clouds,
%
prec.,
mm/h
press.,
hPa
HPBL,
m
11 may, tue
tue1100:00+9sse22690 0.0 1022209
03:00+9s22670 0.0 1021149
06:00+9s21620 0.0 1020149
09:00+11n11580 0.0 1019326
12:00+12ne22590 0.0 1019413
15:00+13ene43603 0.0 1018458
18:00+13ene33620 0.0 1018353
21:00+11ese22670 0.0 1018156
12 may, wed
wed1200:00+11sse22660 0.0 101790
03:00+11se22610 0.0 101592
06:00+11se12590 0.0 1014126
09:00+13ne22560 0.0 1014220
12:00+14ene33630 0.0 1013306
15:00+15ene45660 0.0 1012273
18:00+14ene34740 0.0 1012197
21:00+13ene33820 0.0 1012122
13 may, thu
thu1300:00+13e33812 0.0 101199
03:00+14ene3478100 0.0 1009110
06:00+14e117682 0.0 100942
09:00+16n11733 0.0 100959
12:00+17nw1169100 0.0 1009117
15:00+17n1168100 0.0 1009114
18:00+17nnw11741 0.0 100960
21:00+16wnw11790 0.0 101011
14 may, fri
fri1400:00+16e11741 0.0 101011
03:00+16e11685 0.0 101011
06:00+16e12635 0.0 101012
09:00+17nne21665 0.0 100945
12:00+18nw11635 0.0 101093
15:00+18nne1165100 0.0 101068
18:00+18wnw3367100 0.0 1010102
21:00+15wsw46780 0.0 101489
15 may, sat
sat1500:00+15s33770 0.0 101629
03:00+15s22770 0.0 101618
06:00+16s22750 0.0 101714
09:00+17nw22680 0.0 1018121
12:00+17nw22674 0.0 1018187
15:00+18ne22630 0.0 1015160
18:00
21:00+16ese1173100 0.0 101711